Regional Weather Roundup
Issued by NWS Little Rock, AR

Home | Current Version | Previous Version | Graphics & Text | Print | Product List | Glossary On
Versions: 1 2 3 4 5 6 7 8 9 10 11 12 13 14 15 16 17 18 19 20 21 22 23 24 25 26 27 28 29 30 31 32 33 34 35 36 37 38 39 40 41 42 43 44 45 46 47 48 49 50
000
ASUS44 KLZK 171205
RWRLZK

WEATHER ROUNDUP FOR ARKANSAS
NATIONAL WEATHER SERVICE LITTLE ROCK AR
700 AM CDT FRI APR 17 2015

NOTE: "FAIR" INDICATES FEW OR NO CLOUDS BELOW 12,000 FEET WITH NO
SIGNIFICANT WEATHER AND/OR OBSTRUCTIONS TO VISIBILITY.

ARZ001-003-010-029-171300-
NORTHWEST ARKANSAS

CITY           SKY/WX    TMP DP  RH WIND       PRES   REMARKS
FAYETTEVILLE   LGT RAIN  57  57 100 CALM      30.04R
6HR MIN TEMP:  54; 6HR MAX TEMP:  61; 6HR PCP: TRACE;

FORT SMITH     CLOUDY    62  59  90 NE5       30.01R
6HR MIN TEMP:  62; 6HR MAX TEMP:  65; 6HR PCP: TRACE;

HARRISON       FOG       55  55 100 CALM      30.05R VSB 1/4
6HR MIN TEMP:  55; 6HR MAX TEMP:  60;

BENTONVILLE    CLOUDY    61  55  82 SE5       30.04R
6HR MIN TEMP:  61; 6HR MAX TEMP:  63;

ROGERS         CLOUDY    60  56  86 E6        30.04R
6HR MIN TEMP:  58; 6HR MAX TEMP:  63;

SILOAM SPGS    CLOUDY    59  52  77 SE5       30.04R
6HR MIN TEMP:  59; 6HR MAX TEMP:  63;

HIGHFILL       CLOUDY    60  56  86 CALM      30.03R
6HR MIN TEMP:  56; 6HR MAX TEMP:  62;

SPRINGDALE     MOCLDY    59  57  94 E3        30.05R
$$

ARZ004-005-016-171300-
NORTH CENTRAL ARKANSAS

CITY           SKY/WX    TMP DP  RH WIND       PRES   REMARKS
BATESVILLE     CLOUDY    57  55  94 NW5       30.04R
6HR MIN TEMP:  55; 6HR MAX TEMP:  59;

FLIPPIN        CLOUDY    55 N/A N/A CALM      30.04R
6HR MIN TEMP:  55; 6HR MAX TEMP:  61;

MTN HOME       CLOUDY    57  57 100 NE5       30.04R FOG
6HR MIN TEMP:  57; 6HR MAX TEMP:  61;

$$

ARZ040-041-171300-
WEST CENTRAL ARKANSAS

CITY           SKY/WX    TMP DP  RH WIND       PRES   REMARKS
MENA           CLOUDY    64  63  94 E3        30.02R VSB 1/2
MOUNT IDA      FOG       62  60  93 CALM      30.00R VSB 1/4
6HR MIN TEMP:  62; 6HR MAX TEMP:  64;

$$

ARZ009-017-025-026-028-171300-
NORTHEAST ARKANSAS

CITY           SKY/WX    TMP DP  RH WIND       PRES   REMARKS
CORNING          N/A     57  57 100 NE6       30.06R FOG
JONESBORO      CLOUDY    61  61 100 NE6       30.02S FOG
6HR MIN TEMP:  56; 6HR MAX TEMP:  61; 6HR PCP: TRACE;

NEWPORT        CLOUDY    59  59 100 N7        30.03R FOG
6HR MIN TEMP:  58; 6HR MAX TEMP:  62;

WALNUT RIDGE   CLOUDY    57  55  94 N7        30.04R
6HR MIN TEMP:  55; 6HR MAX TEMP:  61;

BLYTHEVILLE    CLOUDY    64  63  96 E6        30.05R
6HR MIN TEMP:  62; 6HR MAX TEMP:  66;

$$

ARZ022-023-033-042-044-171300-
CENTRAL ARKANSAS

CITY           SKY/WX    TMP DP  RH WIND       PRES   REMARKS
LITTLE ROCK    CLOUDY    63  59  87 N3        30.00S
6HR MIN TEMP:  63; 6HR MAX TEMP:  66;

N LITTLE ROCK    N/A     62  62  99 N5        30.00S
6HR MIN TEMP:  62; 6HR MAX TEMP:  65;

JACKSONVILLE   CLOUDY    62  62  99 NE1       30.00R
6HR MIN TEMP:  62; 6HR MAX TEMP:  64; 6HR PCP: TRACE;

SEARCY         CLOUDY    61  60  97 CALM      30.04R
6HR MIN TEMP:  59; 6HR MAX TEMP:  62;

HOT SPRINGS    CLOUDY    62  61  96 CALM      30.00R FOG
6HR MIN TEMP:  62; 6HR MAX TEMP:  66;

RUSSELLVILLE   CLOUDY    65  60  84 E7        30.00S
6HR MIN TEMP:  62; 6HR MAX TEMP:  67;

CLINTON        MOCLDY    57  57 100 CALM      30.05R FOG
$$

ARZ036-171300-
EAST ARKANSAS

CITY           SKY/WX    TMP DP  RH WIND       PRES   REMARKS
WEST MEMPHIS   CLOUDY    65  65 100 SE8       30.01R
6HR MIN TEMP:  63; 6HR MAX TEMP:  66;

$$

ARZ050-053-066-070-073-171300-
SOUTHWEST ARKANSAS

CITY           SKY/WX    TMP DP  RH WIND       PRES   REMARKS
ARKADELPHIA    FAIR      65  65 100 CALM      29.99S
6HR MIN TEMP:  65; 6HR MAX TEMP:  69;

CAMDEN         CLOUDY    64  61  88 CALM      29.98R FOG
TEXARKANA      CLOUDY    64  63  96 CALM      30.00R
6HR MIN TEMP:  61; 6HR MAX TEMP:  66;

EL DORADO      CLOUDY    64  63  96 VRB3      29.99R
6HR MIN TEMP:  62; 6HR MAX TEMP:  67;

DE QUEEN       CLOUDY    61  60  97 CALM      29.99R
6HR MIN TEMP:  59; 6HR MAX TEMP:  66;

$$

ARZ056-057-069-171300-
SOUTHEAST ARKANSAS

CITY           SKY/WX    TMP DP  RH WIND       PRES   REMARKS
PINE BLUFF     LGT RAIN  65  64  97 CALM      30.01R FOG
6HR MIN TEMP:  65; 6HR MAX TEMP:  67; 6HR PCP: TRACE;

STUTTGART      CLOUDY    64  63  94 CALM      30.01R
6HR MIN TEMP:  64; 6HR MAX TEMP:  66;

MONTICELLO     LGT RAIN  66  65  96 CALM      29.99R FOG
6HR MIN TEMP:  65; 6HR MAX TEMP:  69; 6HR PCP:  0.03;


$$





USA.gov is the U.S. government's official web portal to all federal, state and local government web resources and services.